www.pogodaiklimat.ru

Погода и климат >> Архив погоды >> Корея >> Ульджин


ПОГОДА в Ульджине

  • Прогноз погоды в Ульджине
  • Монитор погоды в Ульджине

АРХИВ ПОГОДЫ в Ульджине

Время (UTC), дата Ветер
(напр.,м/с)
 
Видим.   Явления Облачность Т
(С)
Тd
(С)
f
(%)
Тe
(С)
Тes
(С)
Комфортность P
(гПа)
Po
(гПа)
Тmin
(С)
Tmax
(С)
R
(мм)
R24
(мм)
S
(см)
15 18.06 Ю 3 8000 м 9//
[]
+21.2 +17.6 80 +25 +25 комфорт 1007.6 1002.0
18 18.06 Ю 3 12 км 9/0
[]
+21.5 +17.0 76 +25 +25 комфорт 1006.9 1001.3
21 18.06 ЮЗ 2 8000 м 10/6 1500 м
[]
+20.2 +17.5 84 +24 +24 комфорт 1007.3 1001.6
00 19.06 ЮЗ 4 14 км 9/0
[]
+23.6 +17.1 67 +27 +31 жарко 1006.8 1001.2 +19.7 0.2
03 19.06 15 км н/о +24.6 +17.0 63 +28 +38 душно 1006.0 1000.5
06 19.06 ЮВ 2 16 км 3/0
[]
+24.6 +16.8 62 +28 +41 душно 1005.2 999.7
09 19.06 ЮВ 2 17 км 3/0
[]
+23.9 +17.1 66 +28 +30 душно 1004.8 999.3
12 19.06 Ю 3 20 км ясно +21.7 +16.4 72 +26 +26 душно 1005.0 999.4 +27.5 0.0
15 19.06 З 1 11 км ясно +18.7 +16.4 86 +21 +21 комфорт 1005.8 1000.1
18 19.06 З 2 9000 м ясно +17.2 +15.7 91 +18 +18 1005.4 999.7
21 19.06 З 2 10 км ясно +17.5 +15.3 87 +18 +19 1006.0 1000.3
00 20.06 Ю 4 18 км 6/0
[]
+24.4 +16.8 63 +28 +33 душно 1005.7 1000.2 +16.3 0.0
03 20.06 ЮВ 3 14 км 1/0
[]
+23.2 +17.1 69 +28 +45 душно 1005.6 1000.0
06 20.06 ЮВ 4 7000 м 5/0
[]
+22.2 +19.1 83 +28 +35 душно 1004.1 998.5
09 20.06 Ю 4 5000 м 3/0
[]
+21.4 +17.1 76 +25 +26 комфорт 1003.3 997.7
12 20.06 Ю 2 8000 м ?/? +22.3 +18.4 79 +28 +28 душно 1004.7 999.1 +27.0
15 20.06 ЮЗ 2 20 км 8/0
[]
+23.8 +17.0 66 +28 +28 душно 1004.2 998.7
18 20.06 СЗ 2 20 км 6/0
[]
+21.8 +14.9 65 +25 +25 комфорт 1004.2 998.6
21 20.06 З 1 16 км 10//
[]
+19.5 +15.7 79 +23 +23 комфорт 1005.2 999.6
00 21.06 С 3 12 км 5/0
[]
+22.0 +18.7 82 +27 +34 душно 1005.6 1000.0 +19.4
03 21.06 С 8 17 км 5/5
[]
+24.1 +18.2 70 +29 +31 душно 1005.3 999.8
06 21.06 С 5 11 км 8/8 1000 м
[]
+21.0 +18.1 84 +25 +29 комфорт 1005.2 999.6
09 21.06 С 6 9000 м 8/3 300 м
[]
+19.6 +17.5 88 +22 +22 комфорт 1006.1 1000.5
12 21.06 СЗ 8 20 км 8/8 600 м
[]
+18.4 +14.8 80 +18 +18 1009.0 1003.3 +25.3 0.0
15 21.06 СЗ 2 20 км 6/1 2000 м
[]
+17.5 +13.4 77 +18 +18 1008.4 1002.7
18 21.06 СЗ 4 20 км 8/0 2000 м
[]
+17.8 +13.5 76 +18 +18 1007.9 1002.2
21 21.06 20 км н/о +17.9 +13.3 74 +18 +18 1008.2 1002.5
00 22.06 С 6 20 км 3/0
[]
+21.5 +14.6 65 +25 +28 комфорт 1008.5 1002.9 +17.0 0.0
03 22.06 20 км 4/0
[]
+21.9 +15.7 68 1008.5 1002.9
06 22.06 С 4 20 км 1/0
[]
+21.4 +16.1 72 +25 +34 комфорт 1007.8 1002.2
09 22.06 СЗ 8 20 км ясно +21.4 +14.0 63 +24 +25 комфорт 1007.5 1001.9
12 22.06 СЗ 2 20 км 3/0
[]
+17.9 +13.1 73 +18 +18 1008.5 1002.8 +22.5
15 22.06 З 2 20 км 3/3 300 м
[]
+15.6 +12.8 83 +15 +15 1008.8 1003.0
18 22.06 З 2 20 км 8/8 300 м
[]
+15.5 +12.6 83 +15 +15 1008.5 1002.7
21 22.06 20 км н/о +18.3 +16.0 86 +19 +20 1009.1 1003.4
00 23.06 С 4 20 км 5/5 300 м
[]
+21.2 +16.3 74 +25 +28 комфорт 1009.6 1003.9 +15.0
03 23.06 С 5 20 км 3/0
[]
+20.8 +15.3 71 +24 +33 комфорт 1010.0 1004.3
06 23.06 С 3 20 км 3/0
[]
+21.5 +16.6 74 +25 +36 комфорт 1009.3 1003.7
09 23.06 С 2 20 км 3/3 300 м
[]
+20.4 +16.6 79 +24 +26 комфорт 1009.8 1004.1
12 23.06 С 1 20 км 8/8 300 м
[]
+18.6 +16.2 86 +21 +21 комфорт 1010.7 1005.0 +21.8
15 23.06 20 км н/о +18.3 +16.0 86 +19 +19 1011.6 1005.9
18 23.06 ЮЗ 1 16 км 8/8 200 м
[]
+17.5 +16.6 94 +19 +19 1011.3 1005.6 0.5
21 23.06 З 1 8000 м 6/4 1000 м
[]
+16.8 +16.4 97 +18 +18 1012.7 1006.9
00 24.06 СВ 3 20 км 1/0
[]
+21.0 +16.6 76 +25 +34 комфорт 1013.5 1007.8 +16.6 0.5
03 24.06 В 3 20 км 3/1 300 м
[]
+21.3 +16.6 75 +25 +39 комфорт 1014.0 1008.3
06 24.06 В 3 20 км 1/0
[]
+20.6 +16.0 75 +24 +35 комфорт 1014.0 1008.3
09 24.06 В 2 20 км 1/0
[]
+20.2 +16.0 77 +24 +26 комфорт 1013.9 1008.2
12 24.06 Ю 3 20 км 3/0
[]
+18.8 +16.4 86 +20 +20 1015.0 1009.3 +22.0 0.0
15 24.06 ЮЗ 1 19 км 1/0
[]
+17.0 +16.1 94 +18 +18 1015.6 1009.8
18 24.06 Ю 2 20 км 3/0
[]
+17.9 +15.3 85 +18 +18 1014.9 1009.2
21 24.06 ЮЗ 1 20 км 1/0
[]
+16.6 +14.7 89 +17 +18 1015.6 1009.8
00 25.06 ЮВ 5 18 км 3/0
[]
+20.9 +18.0 83 +25 +30 комфорт 1016.1 1010.4 +16.0 0.0
03 25.06 В 3 19 км 3/0
[]
+22.8 +18.5 77 +29 +43 очень
душно
1016.1 1010.5
06 25.06 ЮВ 2 20 км 3/0
[]
+22.7 +18.8 79 +29 +41 очень
душно
1015.0 1009.4
09 25.06 СЗ 2 19 км 3/0
[]
+21.7 +18.6 83 +27 +28 душно 1014.2 1008.5
12 25.06 Ю 5 20 км ясно +19.8 +18.2 90 +22 +22 комфорт 1014.9 1009.2 +23.1

 

Местоположение метеостанции Ульджин (Корея): широта 36.98 долгота 129.41 высота над уровнем моря 51 м.

В архиве по умолчанию представлена погода в Ульджине за последнюю неделю. Архивные данные за месяц целиком и за предыдущие месяцы, начиная с января 2011 года, Вы можете получить, выбрав интересующий диапазон дат из раскрывающегося списка и нажав кнопку "Ввод!".


*Определитесь, кто Вы:
робот инопланетянин человек

Внимание! Время в таблицах - всемирное. Для получения местного времени необходимо прибавить поправку, которая равна 9 ч.

Смотрите также архив погоды в соседних городах и на ближайших метеорологических станциях:

Погода в Донгхэ (Корея) (63 км)
Погода в Андоне (Корея) (77 км)
Погода в Йонволе (Корея) (87 км)
Погода на Перевале Daegwallyeong (Корея) (97 км)
Погода в Канныне (Корея) (97 км)
Погода в Пхохане (Корея) (106 км)
Погода в Санджу (Корея) (130 км)
Погода в Вонджу (Корея) (135 км)
Погода в Куми (Корея) (137 км)
Погода в Тэгу (Корея) (142 км)

Пояснения к столбцам:

Ветер - указаны скорость ветра в м/с - средняя за 10 мин, порывы в срок и между сроками (в фигурных скобках) и направление, откуда дует ветер: С - северный, СВ - северо-восточный, В - восточный, ЮВ - юго-восточный, Ю - южный, ЮЗ - юго-западный, З - западный, СЗ - северо-западный.
Видимость - горизонтальная дальность видимости в метрах или километрах. При видимости от 1 до 10 км при отсутствии осадков обычно наблюдается дымка, при ухудшении видимости до 1 км и менее - туман. В сухую погоду видимость может ухудшаться дымом, пылью или мглою.
Явления - указаны атмосферные явления, наблюдавшиеся в срок или в последний час перед сроком; фигурными скобками обозначены явления, наблюдавшиеся между сроками (за 1-3 часа до срока); квадратными скобками обозначены град или гололедные отложения с указанием их диаметра в мм.
Облачность - указаны через наклонную черту общая и нижняя облачность в баллах и высота нижней границы облаков в метрах; квадратными скобками обозначены формы облаков: Ci - перистые, Cs - перисто-слоистые, Cc - перисто-кучевые, Ac - высококучевые, As - высокослоистые, Sc - слоисто-кучевые, Ns - слоисто-дождевые, Cu - кучевые, Cb - кучево-дождевые. Подробнее классификацию облаков см. в Атласе облаков (PDF).
T - Температура воздуха - температура, измеренная на высоте 2 м над землей.
Td - Температура точки росы - температура, при понижении до которой содержащийся в воздухе водяной пар достигнет насыщения.
f - Относительная влажность воздуха - влажноcть воздуха, измеренная на высоте 2 м над землей.
Te - Эффективная температура - температура, которую ощущает одетый по сезону человек в тени. Характеристика душности погоды. При расчете учитывается влияние влажности воздуха и скорости ветра на теплоощущения человека.
Tes - Эффективная температура на солнце - температура, которую ощущает человек, с поправкой на солнечный нагрев. Характеристика знойности погоды. Зависит от высоты солнца над горизонтом, облачности и скорости ветра. Ночью, в пасмурную погоду, а также при ветре 12 м/с и более поправка равна нулю.
P - Атмосферное давление - приведенное к уровню моря атмосферное давление.
Po - Атмосферное давление - измеренное на уровне метеостанции атмосферное давление.
Tmin - Минимальная температура - минимум температуры воздуха на высоте 2 м над землей.
Tmax - Максимальная температура - максимум температуры воздуха на высоте 2 м над землей.
R - Количество осадков - Количество выпавших осадков за период времени, мм. При наведении курсора мыши на число - период времени, за который выпало указанное количество осадков.
R24 - Количество осадков - Количество выпавших осадков за 24 часа, мм.
S - Снежный покров - Высота снежного покрова, см. При наведении курсора мыши на число - состояние снежного покрова и степень покрытия местности в баллах.